Date,TemperatureHighF,TemperatureAvgF,TemperatureLowF,DewpointHighF,DewpointAvgF,DewpointLowF,HumidityHigh,HumidityAvg,HumidityLow,PressureMaxIn,PressureMinIn,WindSpeedMaxMPH,WindSpeedAvgMPH,GustSpeedMaxMPH,PrecipitationSumIn
2013-1-1,37,32,20,28,18,8,76,58,44,29.94,29.72,22,9,30,0.00
2013-1-2,28,20,11,17,8,-1,67,60,50,30.12,29.91,22,8,28,0.00
2013-1-3,24,15,7,9,1,-3,66,53,37,30.14,30.01,15,4,25,0.00
2013-1-4,37,31,19,25,21,9,79,66,55,30.01,29.81,22,7,28,0.00
2013-1-5,40,34,24,26,22,19,83,64,47,30.29,29.84,16,5,22,0.00
2013-1-6,43,35,24,30,27,20,89,74,57,30.24,29.95,18,4,25,0.00
2013-1-7,38,33,25,31,27,22,90,79,69,30.43,29.96,15,4,19,0.00
2013-1-8,46,40,35,32,29,28,86,67,50,30.38,30.26,28,8,30,0.00
2013-1-9,45,38,28,37,30,24,88,75,56,30.42,29.99,22,6,28,0.00
2013-1-10,46,42,34,30,27,25,70,56,47,30.55,30.01,28,10,34,0.00
2013-1-11,41,37,29,38,30,24,92,78,66,30.53,30.26,9,3,15,0.05
2013-1-12,45,43,40,42,40,38,96,91,86,30.26,30.14,10,4,15,0.01
2013-1-13,50,46,43,49,45,42,97,96,94,30.17,29.99,15,6,17,0.01
2013-1-14,62,52,42,53,44,29,96,75,42,30.25,29.87,23,7,26,0.00
2013-1-15,42,39,36,31,29,25,74,65,59,30.33,30.23,10,3,15,0.00
2013-1-16,38,35,32,36,31,25,95,87,60,30.27,29.83,9,3,17,0.28
2013-1-17,42,35,30,33,27,11,95,74,44,30.12,29.84,19,8,26,0.04
2013-1-18,30,22,18,13,2,-4,51,41,32,30.47,30.08,23,8,35,0.00
2013-1-19,49,39,25,35,25,9,76,59,40,30.42,29.90,28,12,36,0.00
2013-1-20,54,42,29,36,27,12,77,57,34,29.92,29.53,31,13,42,0.00
2013-1-21,29,26,22,22,10,2,88,53,37,30.11,29.81,22,5,29,0.00
2013-1-22,27,22,14,22,12,1,88,67,42,30.08,29.75,18,7,29,0.00
2013-1-23,16,11,7,2,-6,-11,64,44,30,30.15,30.07,24,8,29,0.00
2013-1-24,18,11,3,-5,-8,-12,51,41,30,30.20,30.05,29,12,37,0.00
2013-1-25,23,16,9,5,-4,-7,53,39,27,30.28,30.08,20,7,29,0.00
2013-1-26,24,19,15,12,6,-5,81,58,32,30.22,30.01,26,8,31,0.00
2013-1-27,29,22,15,5,2,-3,61,42,27,30.48,30.21,20,10,29,0.00
2013-1-28,32,25,18,31,11,-1,100,59,29,30.46,30.04,12,2,15,0.00
2013-1-29,37,33,28,34,30,25,95,90,85,30.21,30.04,11,3,16,0.11
2013-1-30,58,48,35,55,46,34,96,94,89,30.18,29.50,25,12,36,0.14
2013-1-31,58,46,31,55,37,17,96,71,40,29.59,28.98,35,15,49,0.34
2013-2-1,33,29,22,18,11,6,61,47,34,30.07,29.59,24,10,30,0.00
2013-2-2,29,25,18,13,8,3,59,49,39,30.26,30.07,16,7,21,0.00
2013-2-3,29,27,24,25,21,12,89,78,51,30.07,29.73,17,7,20,0.00
2013-2-4,30,25,21,19,11,5,82,57,39,29.94,29.72,26,9,31,0.00
2013-2-5,28,24,20,24,12,6,88,60,46,30.05,29.94,13,3,15,0.00
2013-2-6,38,31,26,29,22,11,92,71,50,30.30,29.94,17,4,23,0.03
2013-2-7,28,23,19,18,6,1,68,47,33,30.55,30.30,15,5,22,0.00
2013-2-8,33,30,24,31,27,18,100,87,68,30.53,29.61,34,14,52,0.00
2013-2-9,24,21,18,23,16,9,94,83,66,30.16,29.55,43,20,56,0.00
2013-2-10,38,25,16,15,9,3,66,51,28,30.40,30.16,22,5,27,0.00
2013-2-11,44,36,24,43,30,8,100,81,42,30.37,29.61,18,5,25,0.34
2013-2-12,45,39,36,36,30,28,96,71,52,29.87,29.60,26,9,29,0.00
2013-2-13,41,35,31,28,25,24,75,68,53,29.87,29.81,11,5,17,0.00
2013-6-18,70,26,58,61,-35,-100,100,91,66,29.98,29.90,9,-596,20,0.08
2013-6-19,70,31,61,54,-29,-100,100,80,45,30.17,29.94,10,-529,18,0.00
2013-6-20,71,32,64,60,-28,-100,100,83,48,30.29,30.17,10,-540,17,0.00
2013-6-21,78,35,68,64,-25,-100,100,83,58,30.27,30.21,9,-537,14,0.00
2013-6-22,82,34,70,64,-28,-100,100,82,48,30.24,30.13,13,-557,22,0.00
2013-6-23,87,36,71,72,-24,-100,100,85,58,30.17,29.99,15,-546,24,0.00
2013-6-24,94,37,83,72,-31,-100,100,81,44,30.03,29.87,15,-593,31,0.00
2013-6-25,91,36,81,72,-29,-100,100,82,46,29.93,29.74,10,-582,17,0.00
2013-6-26,82,28,70,70,-39,-100,100,91,61,29.90,29.73,7,-639,13,0.04
2013-6-27,68,19,63,65,-53,-100,100,98,87,29.91,29.81,7,-715,14,0.03
2013-6-28,74,22,69,71,-47,-100,100,97,88,29.81,29.54,15,-686,28,0.00
2013-6-29,76,23,72,70,-48,-100,100,94,71,29.75,29.56,16,-693,25,0.00
2013-6-30,78,35,70,71,-21,-100,100,93,79,29.97,29.75,12,-532,20,0.00
2013-7-1,77,13,71,72,-70,-100,100,98,85,30.12,29.97,11,-824,26,0.00
2013-7-2,79,23,60,73,-43,-100,100,97,79,30.26,30.12,8,-652,15,0.00
2013-7-3,88,37,71,74,-22,-100,100,87,60,30.25,30.15,11,-543,19,0.00
2013-7-4,91,38,82,76,-22,-100,100,85,60,30.23,30.10,10,-554,16,0.00
2013-7-5,92,38,83,76,-24,-100,100,85,56,30.18,30.04,11,-565,18,0.00
2013-7-6,90,39,84,75,-23,-100,100,82,52,30.09,29.99,10,-551,19,0.00
2013-7-7,90,36,79,72,-28,-100,100,81,46,30.03,29.92,9,-572,17,0.00
2013-7-8,76,25,68,70,-41,-100,100,95,81,30.10,29.93,9,-645,16,0.00
2013-7-9,-200,0,200,-100,-100,-100,100,100,100,30.10,30.10,0,-999,0,0.00